GFSCGP_925_temp_078.txt.gz
Temp
37 36 35 37 38 39 39 39 39 40 42 41 40 40 41 42 42 42 41 39 38 38 38 37 35 34 33 31 29 28 28 27 26 25 24 23 23 24 25 25 25 23 22 21
36 36 37 39 39 39 39 38 38 40 41 40 40 40 41 41 42 42 42 40 40 39 38 37 35 34 33 31 29 27 27 27 25 25 25 24 23 24 25 25 25 24 23 21
36 37 39 39 38 38 38 38 38 38 40 41 40 39 40 41 42 42 43 43 41 40 39 36 34 34 34 31 29 27 28 26 25 25 23 23 23 24 24 25 24 23 23 22
37 39 38 39 38 39 37 39 39 39 38 37 40 37 39 41 41 42 42 42 42 40 39 37 34 34 34 32 29 27 27 26 24 24 23 24 25 26 26 25 25 24 23 23
36 38 38 38 38 39 38 39 39 39 38 38 38 37 38 40 39 41 41 41 41 41 40 38 35 34 34 32 29 28 25 24 24 23 24 25 25 26 26 26 26 24 24 23
37 39 39 39 39 39 39 38 38 38 38 35 37 37 38 40 37 37 40 40 40 41 41 39 36 34 34 30 27 25 24 23 23 24 24 24 24 25 25 25 25 24 23 23
36 37 39 39 38 39 38 37 34 34 35 35 38 38 38 41 39 40 40 40 40 40 40 39 36 34 31 26 25 25 24 23 23 23 24 24 24 24 24 24 24 23 22 22
35 34 37 39 38 37 37 37 35 33 35 36 39 37 39 42 42 40 41 41 40 40 39 38 35 33 29 26 25 25 23 23 24 24 24 24 24 24 24 23 23 23 23 22
35 35 39 39 39 38 37 36 38 36 37 36 38 39 39 40 41 41 41 39 39 38 38 37 34 31 30 28 26 26 24 24 24 25 24 24 24 24 24 23 23 22 23 22
36 34 38 39 40 39 38 39 36 37 33 34 36 37 36 38 40 38 37 37 36 36 37 34 33 31 30 29 27 27 25 24 24 24 24 24 23 24 24 23 23 22 22 21
38 36 36 38 38 37 37 37 37 38 37 35 35 35 37 36 37 37 36 35 35 35 35 34 33 32 31 29 28 27 26 24 24 26 24 23 24 24 24 23 23 23 21 21
38 37 35 36 39 39 39 37 37 36 34 36 36 35 37 38 38 37 36 35 35 35 35 35 34 32 31 30 29 28 26 24 23 24 24 24 24 24 24 23 22 22 21 21
34 35 34 35 37 38 37 38 38 37 36 34 35 32 37 37 37 37 35 35 35 34 33 33 32 32 31 30 29 28 25 24 24 23 24 24 24 24 24 23 22 22 22 22
33 35 34 34 35 36 36 37 38 37 35 36 36 37 34 35 34 35 35 34 34 33 33 32 31 31 31 30 29 27 25 25 24 23 24 25 25 24 24 24 23 22 22 22
34 32 34 35 37 37 36 36 37 36 37 36 34 31 25 22 30 33 35 34 33 33 32 32 31 31 30 30 28 26 26 25 24 24 25 24 25 24 24 24 23 23 23 23
30 32 33 33 36 36 36 36 36 36 37 37 37 34 29 31 32 32 34 34 33 33 33 32 32 31 30 29 28 27 26 25 25 24 25 24 25 24 24 24 23 23 23 23
24 29 32 32 35 35 34 36 37 36 37 37 36 29 29 29 29 30 32 32 33 34 34 33 32 31 30 29 28 27 26 25 24 24 25 24 24 24 24 23 23 23 23 23
20 18 31 31 33 31 33 32 36 37 34 34 27 23 22 23 29 28 28 30 30 30 30 29 30 30 30 30 29 27 26 25 25 24 25 24 24 23 24 23 23 23 23 22
32 31 31 31 31 27 31 27 25 22 31 32 27 28 23 28 29 28 28 29 28 27 27 26 26 27 27 29 29 27 26 26 25 25 24 24 23 23 23 23 23 23 23 22
33 32 30 30 30 27 24 24 23 23 25 30 30 30 31 31 27 26 28 28 27 27 27 26 26 24 24 24 26 28 27 26 25 25 24 24 23 23 23 23 23 23 22 22
30 30 30 30 30 28 23 22 22 22 23 27 27 27 27 25 25 26 26 26 27 27 26 25 26 24 22 23 24 20 18 15 15 22 24 24 24 23 23 23 23 22 22 23
24 20 28 31 30 29 25 23 24 24 24 26 26 26 26 26 26 26 25 25 25 26 26 26 26 25 23 22 22 21 23 23 18 17 24 24 23 23 23 23 22 22 22 22
20 18 17 24 24 25 25 25 25 24 25 26 26 26 26 26 26 25 24 24 24 24 24 25 26 25 23 22 22 20 20 19 16 17 15 22 23 23 23 22 22 22 22 22
24 20 25 22 24 25 25 25 25 25 25 26 26 26 25 25 25 25 24 23 23 23 23 23 24 22 22 22 22 21 21 21 20 19 20 20 22 23 22 22 22 22 22 21
19 18 20 19 25 25 25 25 26 25 25 26 26 26 26 25 25 25 24 23 23 21 21 21 21 21 21 19 18 19 19 19 20 20 22 23 22 22 22 22 21 22 21 21
17 17 17 16 16 23 24 25 25 25 25 25 25 25 25 25 24 24 23 22 21 20 20 19 18 18 18 18 17 17 17 18 19 20 21 21 21 22 22 23 18 18 18 17

GFSCGP_925_temp_084.txt.gz
Temp
29 28 27 28 28 29 29 29 29 32 34 34 34 33 36 35 33 33 32 31 31 31 31 31 30 28 28 28 28 27 27 27 26 25 24 24 24 24 24 24 24 23 23 23
29 27 30 31 31 31 30 30 30 32 34 32 33 33 33 33 34 33 32 32 32 32 31 30 29 28 27 27 28 27 27 27 26 25 25 24 24 24 24 24 24 24 23 23
29 31 32 31 31 31 30 29 31 31 33 33 33 31 31 33 34 34 32 33 33 32 31 30 29 28 27 26 26 27 27 27 26 26 25 24 23 23 23 24 24 24 24 23
29 32 32 32 32 31 28 32 32 32 31 29 31 28 29 31 31 32 32 32 32 32 32 30 29 28 27 27 27 27 26 27 26 26 25 24 24 23 24 25 24 24 23 23
30 31 30 31 32 33 31 33 32 33 31 29 30 27 27 30 32 32 33 32 32 32 32 30 30 29 27 27 26 26 26 26 26 25 25 24 24 24 24 24 24 23 23 23
30 32 32 32 33 33 34 32 30 27 26 27 28 28 31 29 32 32 33 31 32 32 32 32 30 28 27 26 26 26 25 25 26 25 24 24 24 23 23 24 24 24 23 23
30 30 32 33 31 32 33 27 26 27 26 25 28 28 30 31 30 32 32 31 32 33 33 29 27 27 25 25 24 24 25 25 24 24 24 24 24 23 23 24 24 24 23 23
26 28 30 33 30 31 30 28 25 26 26 27 28 28 31 32 34 34 31 32 31 32 32 28 27 26 26 24 23 23 24 23 24 24 24 24 23 23 23 23 23 24 23 23
27 28 31 32 33 32 31 30 27 26 26 25 26 28 30 31 32 31 32 31 30 29 29 28 27 26 24 22 22 23 24 24 24 24 24 24 24 21 23 23 23 23 23 22
30 27 31 33 33 34 31 31 30 23 28 27 26 28 28 31 31 30 30 29 27 27 27 25 24 23 22 21 22 23 24 25 24 24 24 24 23 23 24 23 22 22 22 22
29 26 29 29 31 30 30 29 29 26 24 25 25 27 29 27 29 28 28 27 27 27 25 24 23 23 22 22 23 24 24 24 24 24 23 23 23 23 23 23 22 22 22 21
27 26 25 30 31 32 32 32 29 29 27 24 25 27 27 27 27 29 28 27 27 26 25 25 24 24 23 22 23 24 24 23 24 23 23 24 23 23 23 23 22 22 21 21
27 25 24 27 29 32 31 31 31 26 23 25 25 26 27 25 25 28 28 27 25 25 25 24 24 24 23 22 23 24 24 24 23 23 23 23 23 23 23 23 22 22 21 21
25 23 24 24 26 28 30 33 31 27 28 27 25 27 27 25 24 23 24 24 25 25 24 23 22 24 23 23 23 24 24 24 23 23 23 23 23 23 23 23 22 22 21 21
23 23 23 24 27 28 32 32 31 30 29 29 28 27 25 22 22 22 23 25 26 26 24 24 24 23 23 23 24 24 24 24 24 24 23 23 23 23 23 23 22 22 22 21
23 23 22 26 26 28 31 28 30 24 23 25 27 26 23 23 22 23 24 25 25 26 26 26 25 24 23 24 24 24 24 24 24 24 23 23 23 23 23 23 22 22 21 21
23 21 22 25 24 27 26 25 24 22 21 20 25 21 22 23 24 23 22 24 24 23 23 24 24 23 24 24 25 25 24 24 23 23 23 23 23 23 23 23 23 22 22 22
19 19 18 23 23 25 24 24 23 21 21 21 21 20 19 20 19 20 20 21 22 22 22 21 21 21 23 25 24 25 25 24 24 22 21 22 22 21 20 19 19 20 22 22
20 18 19 22 22 24 22 23 22 22 21 20 20 20 19 20 21 20 20 20 20 20 20 20 20 20 22 23 25 25 23 23 22 20 21 21 20 20 20 20 20 20 21 20
21 19 22 20 23 22 19 22 23 22 22 20 20 20 19 19 17 19 19 20 19 19 20 21 21 21 21 21 22 22 20 20 19 19 20 20 21 21 19 21 23 24 20 21
17 17 20 20 22 19 19 19 22 23 21 18 19 18 19 19 18 17 19 20 20 20 20 21 20 19 19 20 21 19 19 19 20 20 20 21 20 20 20 20 21 22 21 19
17 17 17 17 20 20 20 21 21 18 17 18 18 17 17 17 17 18 20 20 19 19 19 19 18 18 18 18 19 18 18 18 19 19 19 19 19 18 17 16 16 16 18 17
17 16 16 17 17 16 16 18 17 16 17 18 18 18 18 17 18 19 19 18 18 18 17 18 17 17 17 17 17 17 17 18 18 18 18 17 18 18 20 16 15 16 15 17
17 16 15 17 16 16 16 16 16 16 16 19 20 20 19 19 19 19 18 18 17 17 16 17 16 16 16 16 16 16 16 17 17 17 17 18 18 18 18 18 18 17 18 17
17 17 16 16 15 16 16 17 17 17 16 17 18 19 20 19 18 18 17 16 16 16 16 16 15 15 15 15 16 16 16 16 16 15 15 15 16 17 18 18 18 19 19 18
15 16 15 16 15 16 15 15 18 18 19 19 20 19 18 18 18 17 16 16 17 16 17 16 15 15 15 15 15 15 16 16 15 15 15 14 14 15 16 17 16 15 18 17

GFSCGP_925_temp_087.txt.gz
Temp
28 26 25 26 26 29 28 28 27 29 31 32 31 30 32 32 31 31 30 29 29 29 29 29 28 27 27 27 26 26 25 25 25 24 23 23 23 24 24 24 23 23 23 23
27 25 27 28 28 28 28 28 27 28 30 29 29 30 30 31 32 31 30 29 29 30 28 28 28 27 27 27 26 25 26 25 25 24 24 23 24 24 24 24 24 23 23 23
27 28 29 30 29 29 27 27 28 28 30 30 30 29 30 31 32 30 31 31 30 30 29 28 27 27 27 26 26 26 26 25 25 25 24 23 23 23 23 23 24 24 24 24
27 29 30 29 29 28 26 28 30 30 28 28 30 26 28 30 29 29 29 30 30 30 30 28 27 26 27 26 26 26 25 25 24 25 25 24 24 23 24 24 24 24 24 24
27 29 28 29 30 30 29 30 29 29 27 28 29 25 27 29 30 30 30 29 31 31 30 28 28 27 27 27 26 25 25 24 24 25 25 24 24 24 24 23 23 23 24 23
27 29 29 30 31 30 31 31 27 24 23 25 27 26 27 29 30 31 31 30 29 30 30 29 29 27 27 26 25 25 24 24 24 25 25 24 24 23 23 23 23 23 23 23
28 29 30 31 30 30 30 25 25 24 24 26 25 26 26 29 31 30 32 31 29 30 30 28 26 26 26 25 25 24 23 23 23 24 25 23 22 23 22 23 23 23 22 22
25 26 29 30 29 28 27 25 23 26 25 27 25 26 29 31 30 29 30 30 28 29 29 27 26 25 25 25 24 24 23 22 24 25 23 23 24 24 21 22 22 23 23 23
25 26 30 30 31 30 29 27 27 26 23 24 24 26 28 30 29 28 28 28 28 28 28 25 25 25 25 24 22 22 23 23 24 22 23 23 24 24 24 25 22 23 23 22
28 26 28 30 31 30 29 29 28 24 27 26 25 26 26 28 28 26 28 28 27 26 25 24 24 24 24 22 21 23 24 24 23 24 24 23 24 24 24 24 23 23 23 22
26 23 26 29 28 28 28 28 27 24 22 24 24 25 25 27 26 25 24 24 23 23 23 23 23 22 21 20 22 23 23 24 24 23 23 23 24 24 24 22 22 22 22 22
26 21 24 27 29 30 29 28 28 26 25 21 22 25 26 26 26 25 25 25 24 23 23 22 21 21 21 21 21 22 24 24 24 23 23 24 23 22 22 22 22 22 22 21
26 22 22 24 27 28 30 30 27 23 21 23 25 26 24 25 26 26 25 25 24 24 23 22 22 21 21 21 22 23 23 24 23 23 23 23 22 22 22 22 22 21 21 21
23 21 23 23 25 26 24 28 28 25 23 23 24 26 27 25 24 24 25 27 26 25 24 23 22 21 21 21 21 22 22 23 23 22 23 23 22 22 22 22 22 21 21 21
23 24 21 22 24 25 26 27 28 26 24 26 27 25 24 22 19 20 22 23 24 25 23 23 22 22 22 22 22 22 22 22 23 23 23 23 23 23 22 22 22 22 21 21
20 23 22 22 26 26 26 25 26 24 23 25 23 23 19 20 20 20 20 21 22 23 24 23 23 23 22 22 22 22 22 23 23 23 23 23 22 22 22 22 22 22 21 21
23 23 23 23 24 24 24 23 23 21 21 21 23 20 20 20 20 19 19 19 19 20 21 22 22 22 22 23 23 22 23 23 22 23 23 23 23 22 22 22 22 22 21 21
20 20 18 22 21 23 22 23 23 21 21 21 20 20 20 19 17 16 17 18 18 19 19 19 19 19 20 22 23 23 23 23 22 22 22 22 22 22 22 21 21 21 21 21
19 19 20 22 20 22 24 23 22 21 23 21 20 19 19 20 18 18 18 17 17 17 18 18 18 18 18 18 22 23 22 22 22 22 22 22 21 21 21 21 21 22 21 21
18 18 21 19 23 21 22 21 20 21 21 20 19 19 19 19 19 17 18 17 16 16 16 18 17 18 19 18 20 20 19 20 20 20 20 20 20 20 20 21 21 22 21 20
15 16 17 18 20 19 19 18 18 22 20 16 18 18 18 18 18 17 16 18 18 19 19 18 17 17 17 18 19 18 18 18 18 18 18 18 18 18 19 19 19 19 19 19
16 16 17 16 20 20 17 18 20 17 16 16 17 17 16 16 17 17 17 18 17 17 17 17 16 16 16 18 18 16 16 17 17 17 18 18 18 18 18 18 18 18 18 17
18 16 16 16 17 15 16 18 16 15 16 16 17 18 17 17 18 18 17 17 17 16 16 16 15 15 15 16 16 13 15 16 16 16 16 16 17 17 17 17 16 16 16 15
17 14 15 16 16 16 16 15 16 15 15 17 17 17 18 18 18 17 16 16 15 15 15 15 15 14 14 15 15 15 15 16 16 16 15 14 15 15 16 17 17 17 17 16
17 16 16 15 16 16 17 16 15 15 16 17 17 17 18 17 17 16 15 15 14 14 14 15 14 14 14 15 15 15 16 16 16 16 15 15 15 15 14 15 15 15 16 17
16 15 15 15 15 15 16 16 16 16 16 16 17 16 16 17 17 16 15 15 15 14 15 14 14 14 14 15 15 15 15 15 15 15 15 15 15 15 14 14 15 14 14 16

GFSCGP_925_temp_093.txt.gz
Temp
28 28 28 30 31 32 32 30 31 31 33 32 33 33 34 35 35 35 33 32 31 32 30 29 27 27 26 24 24 23 22 22 22 21 21 22 22 22 21 22 22 23 23 23
27 28 29 30 31 30 30 30 30 31 32 31 33 33 34 34 34 35 34 33 31 32 31 29 28 27 26 25 24 23 23 22 22 22 22 23 23 23 22 21 22 22 22 22
29 30 29 29 30 29 30 30 30 31 32 32 31 32 33 35 34 34 35 34 33 32 31 30 28 27 27 26 24 24 23 22 23 24 22 21 21 22 22 21 21 23 22 22
29 30 29 29 29 30 30 31 31 31 31 31 31 31 33 34 33 34 35 34 33 32 31 30 29 28 28 26 25 24 23 23 22 23 22 22 24 24 23 22 22 22 23 22
29 29 29 29 30 30 30 31 31 31 31 30 32 30 33 32 33 36 36 36 36 35 32 31 30 29 28 27 26 24 23 23 23 22 23 23 23 22 24 23 22 22 20 20
28 29 29 31 31 31 32 31 29 27 30 29 32 31 32 33 34 36 36 36 35 36 34 32 31 29 28 28 27 24 23 23 23 22 22 22 22 22 22 22 21 22 22 21
28 29 30 30 30 30 30 30 29 29 29 30 30 29 32 34 35 34 36 36 35 35 35 33 31 29 28 28 27 24 23 23 22 22 22 22 23 23 23 21 23 22 24 23
28 28 30 31 31 30 30 31 29 27 29 30 28 30 33 34 34 33 32 33 33 33 33 32 33 29 28 27 26 25 24 23 22 22 22 22 22 23 22 21 23 22 23 24
28 29 30 30 32 31 28 29 31 27 27 28 31 32 32 33 33 33 32 31 31 31 31 31 31 30 28 28 26 25 24 23 22 23 22 22 23 23 22 22 22 22 23 22
27 27 30 31 31 30 30 31 30 29 26 26 30 30 31 33 34 31 30 28 27 28 28 29 29 28 27 27 25 25 24 23 23 23 22 23 22 24 22 23 22 22 21 21
27 26 29 28 30 30 29 29 29 30 28 29 28 30 32 30 29 28 28 26 26 27 28 28 28 27 27 26 25 24 24 23 23 22 23 22 24 23 22 23 21 22 21 22
26 27 27 29 29 28 29 29 29 29 26 29 29 31 30 29 28 27 27 26 25 26 26 27 26 26 25 25 24 24 23 23 23 23 22 23 23 22 22 22 21 21 21 20
27 26 27 28 29 29 28 27 28 27 27 30 30 31 29 27 27 25 25 26 25 23 23 24 24 25 25 24 24 24 23 23 23 22 23 23 22 22 22 22 22 21 21 20
24 25 26 27 27 27 26 26 26 26 26 30 31 31 30 26 24 23 22 24 25 25 24 23 22 22 22 22 22 22 23 23 23 23 25 24 23 23 23 22 21 21 21 20
25 25 25 26 26 27 26 27 26 25 26 26 31 28 24 22 20 21 21 22 22 24 25 23 23 23 21 20 20 20 20 20 21 22 23 23 23 22 22 22 21 21 20 20
24 25 25 25 27 27 27 26 25 25 25 26 27 26 21 20 21 21 21 22 21 21 22 22 23 21 20 20 19 19 20 20 20 21 23 22 22 22 22 22 21 21 21 20
22 24 24 25 26 27 26 25 24 24 24 22 24 23 20 20 22 22 22 22 23 23 22 23 22 21 20 20 19 18 18 21 20 21 22 22 22 22 21 21 21 21 21 21
20 21 23 25 25 24 24 23 22 22 22 22 21 21 20 20 20 20 20 21 21 21 21 20 20 20 18 18 18 17 21 21 18 18 21 21 21 21 21 21 21 21 21 21
20 21 23 24 26 25 23 23 23 22 21 21 20 20 20 20 21 21 20 20 20 20 19 18 17 18 17 17 16 17 17 21 20 16 19 20 20 20 21 21 20 20 20 20
20 19 21 22 24 25 23 22 19 21 19 19 19 20 21 21 22 21 19 20 19 19 18 19 17 17 16 16 17 17 16 15 17 17 17 17 18 19 18 18 19 18 18 18
21 21 22 23 24 24 19 19 19 21 21 19 20 20 20 21 20 19 19 20 19 18 18 16 16 16 16 16 18 15 15 16 16 16 17 18 18 18 18 18 18 18 18 18
20 20 21 21 22 23 19 20 21 19 19 18 20 20 20 19 19 18 18 18 18 17 17 16 16 15 14 15 17 15 14 15 15 16 17 16 16 16 17 17 17 17 17 17
20 19 19 20 21 18 18 18 18 18 17 18 19 20 20 20 19 18 18 18 17 16 16 16 15 15 14 14 15 15 15 15 15 15 15 15 15 15 16 16 16 17 16 16
20 18 18 19 19 19 19 18 18 18 18 17 19 20 20 18 19 19 19 18 17 17 16 16 16 15 14 14 15 15 15 15 15 15 14 14 15 15 15 16 15 16 16 16
21 18 19 20 19 19 19 18 18 18 18 18 18 19 18 17 16 16 17 15 15 16 15 16 16 15 14 14 14 14 15 15 14 14 14 15 16 15 16 14 14 14 14 13
20 21 21 21 19 19 19 19 19 19 19 18 18 15 15 15 15 16 17 16 16 15 15 15 15 15 15 15 14 14 14 15 16 17 16 15 16 16 16 16 14 14 14 13